www.pogodaiklimat.ru

Погода и климат >> Архив погоды >> Индонезия >> Саумлаки


ПОГОДА в Саумлаки

  • Прогноз погоды в Саумлаки
  • Монитор погоды в Саумлаки

АРХИВ ПОГОДЫ в Саумлаки

Время (UTC), дата Ветер
(напр.,м/с)
 
Видим.   Явления Облачность Т
(С)
Тd
(С)
f
(%)
Тe
(С)
Тes
(С)
Комфортность P
(гПа)
Po
(гПа)
Тmin
(С)
Tmax
(С)
R
(мм)
R24
(мм)
S
(см)
03 14.05 В 4 10 км {ливн. осадки} 6/5 480 м
[Cb cap Cs]
+28.4 +25.8 86 +42 +48 опасность
перегрева
1011.6 1008.7 0.0
06 14.05 В 4 12 км 8/6 600 м
[Cu med, cong Cs]
+30.0 +25.1 75 +43 +46 опасность
перегрева
1009.8 1006.9 0.0
12 14.05 В 5 10 км {дождь} 8/4 600 м
[Cu med, cong Cs]
+27.5 +24.6 84 +39 +39 очень
душно
1012.3 1009.4 +31.6 3
15 14.05 В 4 10 км 8/4 600 м
[Cu med, cong Cs]
+27.3 +23.2 78 +37 +37 очень
душно
1012.1 1009.3
18 14.05 штиль 0 15 км 8/4 600 м
[Cu med, cong Cs]
+26.8 +22.9 79 +36 +36 очень
душно
1010.9 1008.0
21 14.05 штиль 0 8000 м в посл. час дождь 10/6 480 м
[Cu Sc As op]
+25.8 +24.3 91 +36 +36 очень
душно
1011.3 1008.5 0.0
00 15.05 ЮВ 3 8000 м 9/6 600 м
[Cu med, cong As op Cs]
+30.1 +26.2 80 +46 +47 опасность
перегрева
1013.0 1010.1 +22.0 3
03 15.05 ЮВ 4 9000 м 6/4 600 м
[Cu med, cong As op Cs]
+31.2 +26.3 75 +47 +54 опасность
перегрева
1012.1 1009.3 0.0
06 15.05 ЮВ 4 10 км 6/4 600 м
[Cu med, cong As op Cs]
+32.0 +24.9 66 +45 +48 опасность
перегрева
1010.3 1007.4
09 15.05 ЮВ 2 12 км 9/3 600 м
[Cu med, cong Cs]
+27.6 +22.1 72 +36 +36 очень
душно
1011.3 1008.4
12 15.05 ЮВ 2 10 км 9/3 600 м
[Cu med, cong Cs]
+26.9 +21.5 72 +34 +34 очень
душно
1012.8 1009.9 +31.3
15 15.05 ЮВ 4 10 км 9/3 600 м
[Cu med, cong Cs]
+26.8 +21.8 74 +34 +34 очень
душно
1011.9 1009.0
18 15.05 ЮВ 2 10 км 4/1 600 м
[Cu med, cong Cs]
+26.4 +22.7 80 +35 +35 очень
душно
1010.3 1007.4
21 15.05 ЮВ 2 8000 м 4/1 600 м
[Cu med, cong Cs]
+26.3 +22.6 80 +35 +35 очень
душно
1011.0 1008.1
00 16.05 В 3 12 км 5/3 600 м
[Cu med, cong Cs]
+29.9 +23.8 70 +41 +45 опасность
перегрева
1012.2 1009.3 +26.3
03 16.05 В 4 12 км 5/3 600 м
[Cu med, cong Cs]
+30.8 +24.5 69 +43 +52 опасность
перегрева
1010.9 1008.1
06 16.05 В 4 12 км 5/4 600 м
[Cu med, cong Cs]
+30.8 +24.6 70 +44 +48 опасность
перегрева
1009.0 1006.1
09 16.05 штиль 0 15 км 5/4 600 м
[Cu med, cong Cs]
+28.4 +24.3 78 +40 +40 очень
душно
1009.7 1006.8
12 16.05 штиль 0 15 км 5/3 600 м
[Cu med, cong Cs]
+27.0 +23.5 81 +37 +37 очень
душно
1011.5 1008.6 +31.2
15 16.05 штиль 0 15 км 6/5 600 м
[Cu med, cong Cs]
+26.4 +23.4 84 +36 +36 очень
душно
1010.6 1007.8
18 16.05 штиль 0 15 км 6/5 600 м
[Cu med, cong Cs]
+25.2 +23.5 90 +34 +34 очень
душно
1009.5 1006.6
21 16.05 штиль 0 15 км 3/1 600 м
[Cu med, cong Cs]
+25.6 +24.1 91 +35 +35 очень
душно
1010.4 1007.5
00 17.05 штиль 0 15 км 4/4 600 м
[Cu med, cong]
+28.6 +25.4 83 +42 +48 опасность
перегрева
1012.0 1009.1 +25.2
03 17.05 Ю 3 15 км 6/6 600 м
[Cu med, cong]
+30.0 +24.5 72 +42 +48 опасность
перегрева
1010.6 1007.7
06 17.05 Ю 2 8000 м в посл. час дождь 6/6 500 м
[Cu Sc As op]
+28.3 +25.6 85 +42 +46 опасность
перегрева
1008.2 1005.3 0.0
09 17.05 Ю 4 10 км 5/5 600 м
[Cu med, cong]
+28.0 +25.3 85 +41 +41 опасность
перегрева
1008.9 1006.1
12 17.05 Ю 3 10 км 6/6 600 м
[Cu med, cong]
+27.5 +25.2 87 +40 +40 очень
душно
1010.5 1007.6 +30.6
15 17.05 З 2 8000 м в посл. час дождь 6/6 600 м
[Cu med, cong]
+27.2 +25.2 89 +39 +39 очень
душно
1009.9 1007.1 0.3
18 17.05 З 3 3000 м слаб. дождь 9/5 500 м
[Cu Sc As op]
+25.7 +24.9 95 +36 +36 очень
душно
1009.7 1006.8 14
21 17.05 СВ 4 7000 м слаб. дождь 9/5 500 м
[Cu Sc As op]
+26.0 +24.9 94 +37 +37 очень
душно
1010.3 1007.4 1
00 18.05 В 2 15 км {дождь} 8/5 600 м
[Cu med, cong Ac As]
+28.0 +25.7 87 +41 +43 опасность
перегрева
1011.8 1008.9 +25.6 0.2
03 18.05 СВ 4 15 км 8/4 600 м
[Cu med, cong Ac trans]
+30.2 +25.6 76 +44 +49 опасность
перегрева
1011.2 1008.3
06 18.05 В 4 10 км {дождь} 6/5 480 м
[Cb cap Cs]
+30.6 +25.1 73 +44 +48 опасность
перегрева
1009.4 1006.6 0.0
09 18.05 ЮЗ 2 6000 м в посл. час дождь 9/5 480 м
[Cu Sc Ac trans Cs]
+25.9 +24.2 90 +36 +36 очень
душно
1010.6 1007.7 0.0
12 18.05 штиль 0 6000 м 8/8 480 м
[Cu Sc]
+26.9 +25.1 90 +39 +39 очень
душно
1012.3 1009.4 +31.0 2
15 18.05 В 3 8000 м 4/3 600 м
[Cu med, cong As trans]
+26.8 +24.7 88 +38 +38 очень
душно
1011.7 1008.8
18 18.05 штиль 0 8000 м в посл. час дождь 9/5 600 м
[Cu med, cong As op]
+26.0 +24.5 91 +36 +36 очень
душно
1010.8 1007.9 0.6
21 18.05 штиль 0 6000 м в посл. час дождь 10/5 480 м
[Cu Sc As op]
+25.4 +24.5 95 +36 +36 очень
душно
1011.3 1008.4 9
00 19.05 ЮВ 3 12 км {дождь} 9/8 480 м
[Cu Sc As op]
+28.2 +25.8 87 +42 +43 опасность
перегрева
1012.8 1009.9 +27.0 10
03 19.05 В 6 10 км слаб. дождь 10/9 480 м
[Cu Sc As op]
+25.2 +24.4 95 +35 +35 очень
душно
1012.6 1009.8 35
06 19.05 В 6 12 км 10/8 480 м
[Cu Sc Ac trans]
+26.7 +24.5 88 +38 +38 очень
душно
1010.8 1007.9 35
09 19.05 штиль 0 12 км {дождь} 9/5 500 м
[Cu Sc As op]
+26.8 +24.7 88 +38 +38 очень
душно
1011.8 1008.9 0.0
12 19.05 штиль 0 10 км в посл. час дождь 10/5 480 м
[Cu Sc As op]
+25.7 +24.3 92 +36 +36 очень
душно
1012.3 1009.4 +31.1 2
15 19.05 ЮВ 3 10 км {дождь} 9/5 500 м
[Cu Sc Ac As]
+25.8 +24.4 92 +36 +36 очень
душно
1011.9 1009.0 1
18 19.05 В 4 8000 м в посл. час дождь 9/5 480 м
[Cu Sc Ac As]
+25.7 +24.3 92 +36 +36 очень
душно
1010.5 1007.7 1
21 19.05 В 4 8000 м осадки на расстоянии 9/5 480 м
[Cu Sc Ac As]
+25.4 +24.5 95 +36 +36 очень
душно
1011.0 1008.1 0.0
00 20.05 В 8 12 км слаб. дождь 9/5 480 м
[Cu Sc Ac As]
+27.6 +25.0 86 +40 +40 очень
душно
1012.7 1009.9 +25.4 0.0
03 20.05 В 6 12 км 6/5 600 м
[Cu med, cong Ac As]
+30.2 +25.1 74 +44 +47 опасность
перегрева
1011.4 1008.5 0.0
06 20.05 В 5 10 км осадки на расстоянии 9/5 480 м
[Cu Sc Ac As]
+29.8 +25.5 78 +44 +45 опасность
перегрева
1010.0 1007.1 0.0
09 20.05 В 2 12 км {дождь} 6/3 600 м
[Cu med, cong Cs]
+27.8 +24.0 80 +39 +39 очень
душно
1010.6 1007.8 0.8
12 20.05 В 3 10 км 8/4 600 м
[Cu med, cong Cs]
+26.8 +23.8 84 +37 +37 очень
душно
1012.3 1009.5 +31.2 0.0
15 20.05 В 3 7000 м слаб. дождь 8/6 480 м
[Cu Sc Cs]
+27.2 +24.3 84 +38 +38 очень
душно
1011.8 1008.9 0.0
18 20.05 В 6 7000 м 8/6 480 м
[Cu Sc Cs]
+25.2 +23.7 91 +34 +34 очень
душно
1011.2 1008.3 6
21 20.05 В 4 8000 м слаб. дождь 9/6 480 м
[Cu Sc Ac As]
+25.2 +23.7 91 +34 +34 очень
душно
1011.7 1008.8 6
00 21.05 В 4 12 км {дождь} 9/4 600 м
[Cu med, cong Ac As]
+26.0 +25.2 95 +37 +39 очень
душно
1012.4 1009.5 +25.1 0.0

 

Местоположение метеостанции Саумлаки (Индонезия): широта -7.98 долгота 131.30 высота над уровнем моря 24 м.

В архиве по умолчанию представлена погода в Саумлаки за последнюю неделю. Архивные данные за месяц целиком и за предыдущие месяцы, начиная с января 2011 года, Вы можете получить, выбрав интересующий диапазон дат из раскрывающегося списка и нажав кнопку "Ввод!".


*Определитесь, кто Вы:
робот инопланетянин человек

Внимание! Время в таблицах - всемирное. Для получения местного времени необходимо прибавить поправку, которая равна 9 ч.

Смотрите также архив погоды в соседних городах и на ближайших метеорологических станциях:

Погода в Туале (Индонезия) (302 км)
Погода в Кейп-Доне (Северная территория, Австралия) (375 км)
Погода на Острове Маклер (Северная территория, Австралия) (388 км)
Погода в Гарден-Пойнте (Северная территория, Австралия) (392 км)
Погода в Неира (Индонезия) (414 км)
Погода на Острове Батерст (Северная территория, Австралия) (446 км)
Погода в Уорруви (Северная территория, Австралия) (468 км)
Погода в Гесере (Индонезия) (468 км)
Погода в Пойнт Стьюарт (Северная территория, Австралия) (477 км)
Погода в Дарвине (Северная территория, Австралия) (495 км)

Пояснения к столбцам:

Ветер - указаны скорость ветра в м/с - средняя за 10 мин, порывы в срок и между сроками (в фигурных скобках) и направление, откуда дует ветер: С - северный, СВ - северо-восточный, В - восточный, ЮВ - юго-восточный, Ю - южный, ЮЗ - юго-западный, З - западный, СЗ - северо-западный.
Видимость - горизонтальная дальность видимости в метрах или километрах. При видимости от 1 до 10 км при отсутствии осадков обычно наблюдается дымка, при ухудшении видимости до 1 км и менее - туман. В сухую погоду видимость может ухудшаться дымом, пылью или мглою.
Явления - указаны атмосферные явления, наблюдавшиеся в срок или в последний час перед сроком; фигурными скобками обозначены явления, наблюдавшиеся между сроками (за 1-3 часа до срока); квадратными скобками обозначены град или гололедные отложения с указанием их диаметра в мм.
Облачность - указаны через наклонную черту общая и нижняя облачность в баллах и высота нижней границы облаков в метрах; квадратными скобками обозначены формы облаков: Ci - перистые, Cs - перисто-слоистые, Cc - перисто-кучевые, Ac - высококучевые, As - высокослоистые, Sc - слоисто-кучевые, Ns - слоисто-дождевые, Cu - кучевые, Cb - кучево-дождевые. Подробнее классификацию облаков см. в Атласе облаков (PDF).
T - Температура воздуха - температура, измеренная на высоте 2 м над землей.
Td - Температура точки росы - температура, при понижении до которой содержащийся в воздухе водяной пар достигнет насыщения.
f - Относительная влажность воздуха - влажноcть воздуха, измеренная на высоте 2 м над землей.
Te - Эффективная температура - температура, которую ощущает одетый по сезону человек в тени. Характеристика душности погоды. При расчете учитывается влияние влажности воздуха и скорости ветра на теплоощущения человека.
Tes - Эффективная температура на солнце - температура, которую ощущает человек, с поправкой на солнечный нагрев. Характеристика знойности погоды. Зависит от высоты солнца над горизонтом, облачности и скорости ветра. Ночью, в пасмурную погоду, а также при ветре 12 м/с и более поправка равна нулю.
P - Атмосферное давление - приведенное к уровню моря атмосферное давление.
Po - Атмосферное давление - измеренное на уровне метеостанции атмосферное давление.
Tmin - Минимальная температура - минимум температуры воздуха на высоте 2 м над землей.
Tmax - Максимальная температура - максимум температуры воздуха на высоте 2 м над землей.
R - Количество осадков - Количество выпавших осадков за период времени, мм. При наведении курсора мыши на число - период времени, за который выпало указанное количество осадков.
R24 - Количество осадков - Количество выпавших осадков за 24 часа, мм.
S - Снежный покров - Высота снежного покрова, см. При наведении курсора мыши на число - состояние снежного покрова и степень покрытия местности в баллах.